When you browse on this site, cookies collect data to enhance your experience and personalize the content and advertising you see.
Visit our Privacy Policy to learn more. By continuing to use the site, you agree to this use of cookies and data.
  • In Czech Republic
  • List of Countries
  • For 7 days
  • Water Temperature
  • Satellite Maps
  • Weather Map
  • Weather Widgets
  • user-avatar
    Login

    Hourly Weather Sulukta

    Today, 18 June, Tuesday

    Time Temperature Precipitation Wind Pressure Humidity
    00:00 +19°C° 0 mm 1 mps 645 mmHg 42%
    01:00 +19°C° 0 mm 1 mps 645 mmHg 41%
    02:00 +17°C° 0 mm 2 mps 645 mmHg 41%
    03:00 +17°C° 0 mm 2 mps 645 mmHg 41%
    04:00 +16°C° 0 mm 2 mps 645 mmHg 41%
    05:00 +16°C° 0 mm 2 mps 645 mmHg 41%
    06:00 +19°C° 0 mm 1 mps 645 mmHg 37%
    07:00 +21°C° 0 mm 1 mps 646 mmHg 33%
    08:00 +22°C° 0 mm 1 mps 647 mmHg 28%
    09:00 +23°C° 0 mm 2 mps 647 mmHg 28%
    10:00 +24°C° 0 mm 3 mps 647 mmHg 27%
    11:00 +25°C° 0 mm 4 mps 647 mmHg 26%
    12:00 +25°C° 0 mm 4 mps 647 mmHg 26%
    13:00 +26°C° 0 mm 4 mps 647 mmHg 26%
    14:00 +27°C° 0 mm 4 mps 647 mmHg 25%
    15:00 +27°C° 0 mm 4 mps 647 mmHg 25%
    16:00 +27°C° 0 mm 4 mps 647 mmHg 25%
    17:00 +26°C° 0 mm 3 mps 646 mmHg 25%
    18:00 +25°C° 0 mm 2 mps 646 mmHg 29%
    19:00 +24°C° 0 mm 2 mps 646 mmHg 33%
    20:00 +22°C° 0 mm 1 mps 646 mmHg 36%
    21:00 +22°C° 0 mm 1 mps 646 mmHg 37%
    22:00 +21°C° 0 mm 1 mps 646 mmHg 37%
    23:00 +21°C° 0 mm 1 mps 646 mmHg 38%

    Tomorrow, 19 June, Wednesday

    Time Temperature Precipitation Wind Pressure Humidity
    00:00 +19°C° 0 mm 2 mps 645 mmHg 39%
    01:00 +19°C° 0 mm 2 mps 645 mmHg 40%
    02:00 +18°C° 0 mm 2 mps 645 mmHg 42%
    03:00 +18°C° 0 mm 1 mps 644 mmHg 43%
    04:00 +18°C° 0 mm 1 mps 644 mmHg 45%
    05:00 +16°C° 0 mm 1 mps 644 mmHg 46%
    06:00 +19°C° 0 mm 1 mps 644 mmHg 41%
    07:00 +21°C° 0 mm 1 mps 645 mmHg 37%
    08:00 +23°C° 0 mm 1 mps 646 mmHg 32%
    09:00 +23°C° 0 mm 2 mps 646 mmHg 30%
    10:00 +24°C° 0 mm 3 mps 646 mmHg 29%
    11:00 +25°C° 0 mm 3 mps 646 mmHg 28%
    12:00 +25°C° 0 mm 3 mps 646 mmHg 27%
    13:00 +26°C° 0 mm 3 mps 646 mmHg 27%
    14:00 +26°C° 0 mm 3 mps 646 mmHg 26%
    15:00 +26°C° 0 mm 3 mps 646 mmHg 26%
    16:00 +26°C° 0 mm 3 mps 646 mmHg 26%
    17:00 +26°C° 0 mm 3 mps 646 mmHg 26%
    18:00 +25°C° 0 mm 2 mps 646 mmHg 29%
    19:00 +24°C° 0 mm 1 mps 646 mmHg 33%
    20:00 +23°C° 0 mm 1 mps 646 mmHg 36%
    21:00 +22°C° 0 mm 1 mps 645 mmHg 37%
    22:00 +21°C° 0 mm 1 mps 645 mmHg 38%
    23:00 +21°C° 0 mm 1 mps 645 mmHg 39%

    Day after tomorrow, 20 June, Thursday

    Time Temperature Precipitation Wind Pressure Humidity
    00:00 +20°C° 0 mm 1 mps 645 mmHg 40%
    01:00 +19°C° 0 mm 1 mps 645 mmHg 41%
    02:00 +19°C° 0 mm 1 mps 644 mmHg 42%
    03:00 +18°C° 0 mm 1 mps 644 mmHg 42%
    04:00 +18°C° 0 mm 1 mps 645 mmHg 42%
    05:00 +16°C° 0 mm 1 mps 645 mmHg 42%
    06:00 +19°C° 0 mm 1 mps 645 mmHg 37%
    07:00 +21°C° 0 mm 1 mps 646 mmHg 32%
    08:00 +23°C° 0 mm 1 mps 647 mmHg 27%
    09:00 +24°C° 0 mm 2 mps 647 mmHg 26%
    10:00 +25°C° 0 mm 2 mps 647 mmHg 25%
    11:00 +26°C° 0 mm 3 mps 647 mmHg 24%
    12:00 +27°C° 0 mm 3 mps 647 mmHg 23%
    13:00 +27°C° 0 mm 3 mps 647 mmHg 22%
    14:00 +28°C° 0 mm 3 mps 647 mmHg 22%
    15:00 +28°C° 0 mm 3 mps 647 mmHg 22%
    16:00 +28°C° 0 mm 4 mps 647 mmHg 21%
    17:00 +28°C° 0 mm 4 mps 647 mmHg 21%
    18:00 +26°C° 0 mm 3 mps 647 mmHg 26%
    19:00 +24°C° 0 mm 2 mps 646 mmHg 30%
    20:00 +23°C° 0 mm 1 mps 646 mmHg 34%
    21:00 +22°C° 0 mm 1 mps 646 mmHg 34%
    22:00 +21°C° 0 mm 1 mps 646 mmHg 34%
    23:00 +21°C° 0 mm 1 mps 646 mmHg 34%

    21 June, Friday

    Time Temperature Precipitation Wind Pressure Humidity
    00:00 +21°C° 0 mm 1 mps 646 mmHg 35%
    01:00 +20°C° 0 mm 1 mps 645 mmHg 36%
    02:00 +20°C° 0 mm 1 mps 645 mmHg 37%
    03:00 +19°C° 0 mm 1 mps 645 mmHg 38%
    04:00 +19°C° 0 mm 1 mps 645 mmHg 39%
    05:00 +18°C° 0 mm 1 mps 645 mmHg 40%
    06:00 +20°C° 0 mm 1 mps 646 mmHg 34%
    07:00 +23°C° 0 mm 1 mps 646 mmHg 29%
    08:00 +25°C° 0 mm 1 mps 647 mmHg 24%
    09:00 +26°C° 0 mm 1 mps 647 mmHg 23%
    10:00 +27°C° 0 mm 2 mps 647 mmHg 22%
    11:00 +28°C° 0 mm 2 mps 648 mmHg 22%
    12:00 +28°C° 0 mm 2 mps 647 mmHg 21%
    13:00 +29°C° 0 mm 3 mps 647 mmHg 21%
    14:00 +30°C° 0 mm 3 mps 647 mmHg 20%
    15:00 +30°C° 0 mm 3 mps 647 mmHg 20%
    16:00 +30°C° 0 mm 3 mps 647 mmHg 21%
    17:00 +30°C° 0 mm 4 mps 647 mmHg 21%
    18:00 +28°C° 0 mm 3 mps 646 mmHg 26%
    19:00 +26°C° 0 mm 2 mps 646 mmHg 31%
    20:00 +24°C° 0 mm 1 mps 645 mmHg 36%
    21:00 +23°C° 0 mm 1 mps 645 mmHg 37%
    22:00 +23°C° 0 mm 1 mps 645 mmHg 38%
    23:00 +22°C° 0 mm 1 mps 645 mmHg 39%

    22 June, Saturday

    Time Temperature Precipitation Wind Pressure Humidity
    00:00 +22°C° 0 mm 1 mps 645 mmHg 39%
    01:00 +21°C° 0 mm 1 mps 645 mmHg 40%
    02:00 +21°C° 0 mm 1 mps 644 mmHg 40%
    03:00 +20°C° 0 mm 1 mps 644 mmHg 41%
    04:00 +20°C° 0 mm 1 mps 644 mmHg 41%
    05:00 +18°C° 0 mm 2 mps 644 mmHg 42%
    06:00 +20°C° 0 mm 2 mps 645 mmHg 37%
    07:00 +23°C° 0 mm 2 mps 646 mmHg 32%
    08:00 +24°C° 0 mm 2 mps 646 mmHg 28%
    09:00 +25°C° 0 mm 3 mps 647 mmHg 27%
    10:00 +26°C° 0 mm 4 mps 647 mmHg 26%
    11:00 +27°C° 0 mm 4 mps 647 mmHg 26%
    12:00 +27°C° 0 mm 4 mps 647 mmHg 26%
    13:00 +28°C° 0 mm 4 mps 647 mmHg 26%
    14:00 +28°C° 0 mm 4 mps 647 mmHg 26%
    15:00 +28°C° 0.1 mm 4 mps 647 mmHg 26%
    16:00 +28°C° 0.1 mm 4 mps 647 mmHg 26%
    17:00 +28°C° 0.1 mm 4 mps 647 mmHg 26%
    18:00 +27°C° 0 mm 3 mps 647 mmHg 30%
    19:00 +25°C° 0 mm 2 mps 647 mmHg 33%
    20:00 +24°C° 0 mm 1 mps 646 mmHg 37%
    21:00 +23°C° 0 mm 1 mps 646 mmHg 39%
    22:00 +22°C° 0 mm 1 mps 646 mmHg 41%
    23:00 +21°C° 0 mm 1 mps 646 mmHg 43%

    23 June, Sunday

    Time Temperature Precipitation Wind Pressure Humidity
    00:00 +21°C° 0 mm 1 mps 646 mmHg 45%
    01:00 +20°C° 0 mm 1 mps 646 mmHg 46%
    02:00 +20°C° 0 mm 1 mps 646 mmHg 48%
    03:00 +19°C° 0 mm 1 mps 646 mmHg 48%
    04:00 +17°C° 0 mm 0 mps 646 mmHg 48%
    05:00 +17°C° 0 mm 0 mps 646 mmHg 48%
    06:00 +20°C° 0.1 mm 1 mps 646 mmHg 43%
    07:00 +21°C° 0.1 mm 2 mps 647 mmHg 38%
    08:00 +24°C° 0.1 mm 3 mps 648 mmHg 33%
    09:00 +25°C° 0 mm 4 mps 648 mmHg 33%
    10:00 +26°C° 0 mm 4 mps 648 mmHg 32%
    11:00 +28°C° 0 mm 5 mps 649 mmHg 31%
    12:00 +28°C° 0.2 mm 5 mps 649 mmHg 30%
    13:00 +29°C° 0.2 mm 5 mps 649 mmHg 28%
    14:00 +30°C° 0.2 mm 5 mps 649 mmHg 27%
    15:00 +29°C° 0.3 mm 5 mps 648 mmHg 27%
    16:00 +29°C° 0.3 mm 4 mps 648 mmHg 27%
    17:00 +29°C° 0.3 mm 3 mps 648 mmHg 27%
    18:00 +27°C° 0.2 mm 3 mps 648 mmHg 31%
    19:00 +25°C° 0.2 mm 3 mps 647 mmHg 36%
    20:00 +22°C° 0.2 mm 3 mps 647 mmHg 41%
    21:00 +22°C° 0.2 mm 3 mps 647 mmHg 41%
    22:00 +22°C° 0.2 mm 3 mps 647 mmHg 42%
    23:00 +22°C° 0.2 mm 4 mps 647 mmHg 43%
    Show more